Terminal Aerodrome Forecast
Issued by NWS Sioux Falls, SD

Home | Current Version | Previous Version | Text Only | Print | Product List | Glossary On
Versions: 1 2 3 4 5 6 7 8 9 10 11 12 13 14 15 16 17 18 19 20 21 22 23 24 25 26 27 28 29 30 31 32 33 34 35 36 37 38 39 40 41 42 43 44 45 46 47 48 49
132
FTUS43 KFSD 040901 AAB
TAFSUX
TAF AMD
KSUX 040901Z 0409/0506 18009KT P6SM SCT007 OVC025
     FM041500 25007KT P6SM SCT015 SCT080
     FM041600 26007KT P6SM SCT080
     FM041900 29010KT P6SM SCT250=

USA.gov is the U.S. government's official web portal to all federal, state and local government web resources and services.